DW4915 Mazarete ES current weather conditions

sailwx.info

Wind from 308

Air temperature 28.9° C
Dewpoint 28.9° C

Last reported at 2017-Apr-30 20:06 UTC.
Time now 2017-Apr-30 20:47 UTC

Location: N 40°58' W 002°11'.
View on Google Maps.

See reports from other nearby stations

  
Tides and Currents Weather Stations Pressure Air Temp Water Temp Dewpoint Dewpoint Depression Visibility Wind Speed Wind Dir Waves Ship Positions
date/time (UTC)wind fromknots sea level pressurealtimeterstation pressurevisibilityair tempwater tempwave heightnotes
2017-Apr-30 20:06 308 28.9
2017-Apr-30 20:01 321 28.9
2017-Apr-30 19:51 241 29.4
2017-Apr-30 19:46 241 29.4
2017-Apr-30 19:41 242 29.4
2017-Apr-30 19:36 238 29.4
2017-Apr-30 19:31 205 29.4
2017-Apr-30 19:26 196 30.0
2017-Apr-30 19:21 227 30.0
2017-Apr-30 19:16 216 30.0
2017-Apr-30 19:11 255 29.4
2017-Apr-30 19:06 240 30.0
2017-Apr-30 19:01 242 30.0
2017-Apr-30 18:56 250 30.0
2017-Apr-30 18:51 250 30.0
2017-Apr-30 18:46 254 30.0
2017-Apr-30 18:41 277 30.0
2017-Apr-30 18:36 271 30.0
2017-Apr-30 18:31 265 30.0
2017-Apr-30 18:26 265 30.0
2017-Apr-30 18:21 281 30.0
2017-Apr-30 18:11 269 30.6
2017-Apr-30 18:06 279 30.6
2017-Apr-30 18:01 269 30.6
2017-Apr-30 17:56 258 30.6
2017-Apr-30 17:46 275 30.6
2017-Apr-30 17:41 287 30.6
2017-Apr-30 17:36 273 30.6
2017-Apr-30 17:31 306 30.6
2017-Apr-30 17:26 294 30.0
2017-Apr-30 17:21 306 30.0
2017-Apr-30 17:16 295 30.0
2017-Apr-30 17:11 289 30.0
2017-Apr-30 17:06 294 30.0
2017-Apr-30 17:01 356 30.0
2017-Apr-30 16:56 282 30.0
2017-Apr-30 16:51 260 30.0
2017-Apr-30 16:46 294 30.0
2017-Apr-30 16:41 283 30.0
2017-Apr-30 16:36 316 30.6
2017-Apr-30 16:31 287 31.1
2017-Apr-30 16:26 282 32.2
2017-Apr-30 16:21 233 33.9
2017-Apr-30 16:16 265 33.9
2017-Apr-30 16:11 246 34.4
2017-Apr-30 16:06 271 34.4
2017-Apr-30 16:01 256 33.9
2017-Apr-30 15:56 281 33.9
2017-Apr-30 15:51 221 33.9
2017-Apr-30 15:46 256 32.8
2017-Apr-30 15:41 253 32.8
2017-Apr-30 15:36 234 32.8
2017-Apr-30 15:31 251 32.8
2017-Apr-30 15:26 257 32.8
2017-Apr-30 15:21 227 32.8
2017-Apr-30 15:16 288 32.8
2017-Apr-30 15:11 253 32.8
2017-Apr-30 15:06 233 32.8
2017-Apr-30 15:01 235 32.8
2017-Apr-30 14:56 236 32.8
2017-Apr-30 14:51 262 32.8
2017-Apr-30 14:46 221 33.3
2017-Apr-30 14:41 233 33.3
2017-Apr-30 14:36 229 33.3
2017-Apr-30 14:31 231 33.3
2017-Apr-30 14:26 229 33.3
2017-Apr-30 14:21 200 33.3
2017-Apr-30 14:16 201 33.3
2017-Apr-30 14:11 238 33.9
2017-Apr-30 14:06 250 33.9
2017-Apr-30 14:01 233 33.9
2017-Apr-30 13:56 225 33.9
2017-Apr-30 13:51 231 33.9
2017-Apr-30 13:46 243 34.4
2017-Apr-30 13:41 243 34.4
2017-Apr-30 13:36 225 35.0
2017-Apr-30 13:31 253 36.1
2017-Apr-30 13:26 253 36.1
2017-Apr-30 13:21 191 35.6
2017-Apr-30 13:16 206 35.0
2017-Apr-30 13:11 257 35.6
2017-Apr-30 13:06 233 35.6
2017-Apr-30 13:01 281 35.6
2017-Apr-30 12:56 243 35.0
2017-Apr-30 12:51 236 35.0
2017-Apr-30 12:46 237 35.0
2017-Apr-30 12:41 258 35.0
2017-Apr-30 12:36 211 34.4
2017-Apr-30 12:31 191 35.0
2017-Apr-30 12:26 163 35.0
2017-Apr-30 12:21 236 35.0
2017-Apr-30 12:16 216 34.4
2017-Apr-30 12:11 229 33.9
2017-Apr-30 12:06 238 33.9
2017-Apr-30 12:01 241 33.9
2017-Apr-30 11:56 233 34.4
2017-Apr-30 11:51 221 34.4
2017-Apr-30 11:46 238 33.9
2017-Apr-30 11:41 243 33.9
2017-Apr-30 11:36 231 33.9
2017-Apr-30 11:31 233 34.4
2017-Apr-30 11:26 232 34.4
2017-Apr-30 11:21 230 33.9
2017-Apr-30 11:16 235 33.9
2017-Apr-30 11:11 262 34.4
2017-Apr-30 11:06 246 34.4
2017-Apr-30 11:01 221 33.9
2017-Apr-30 10:56 235 33.3
2017-Apr-30 10:51 211 32.8
2017-Apr-30 10:46 207 32.2
2017-Apr-30 10:41 244 32.2
2017-Apr-30 10:36 228 32.2
2017-Apr-30 10:31 251 31.7
2017-Apr-30 10:26 236 31.7
2017-Apr-30 10:21 249 31.7
2017-Apr-30 10:16 225 31.7
2017-Apr-30 10:11 242 31.7
2017-Apr-30 10:06 235 31.7
2017-Apr-30 10:01 233 31.7
2017-Apr-30 09:56 254 31.7
2017-Apr-30 09:51 243 31.7
2017-Apr-30 09:46 221 31.7
2017-Apr-30 09:41 231 31.7
2017-Apr-30 09:36 244 32.2
2017-Apr-30 09:31 227 32.2
2017-Apr-30 09:26 230 32.2
2017-Apr-30 09:21 216 32.2
2017-Apr-30 09:16 254 32.2
2017-Apr-30 09:11 234 32.2
2017-Apr-30 09:06 234 32.2
2017-Apr-30 09:01 238 32.2
2017-Apr-30 08:56 238 31.7
2017-Apr-30 08:51 250 31.7
2017-Apr-30 08:46 216 32.2
2017-Apr-30 08:41 228 32.2
2017-Apr-30 08:36 237 32.2
2017-Apr-30 08:31 231 32.2
2017-Apr-30 08:26 248 32.2
2017-Apr-30 08:21 211 32.2
2017-Apr-30 08:16 275 32.2
2017-Apr-30 08:11 243 32.2
2017-Apr-30 08:06 216 32.2
2017-Apr-30 08:01 216 32.2
2017-Apr-30 07:56 239 32.2
2017-Apr-30 07:51 240 32.2
2017-Apr-30 07:46 256 32.2
2017-Apr-30 07:41 265 32.2
2017-Apr-30 07:36 270 32.2
2017-Apr-30 07:31 242 32.2
2017-Apr-30 07:26 233 32.2
2017-Apr-30 07:21 154 32.2
2017-Apr-30 07:16 211 32.2
2017-Apr-30 07:11 256 32.2
2017-Apr-30 07:06 221 32.2
2017-Apr-30 07:01 221 32.2
2017-Apr-30 06:56 246 32.2
2017-Apr-30 06:51 211 32.2
2017-Apr-30 06:46 229 32.8
2017-Apr-30 06:41 211 32.8
2017-Apr-30 06:36 244 32.8
2017-Apr-30 06:31 203 32.8
2017-Apr-30 06:26 246 32.8
2017-Apr-30 06:21 238 32.8
2017-Apr-30 06:16 203 32.8
2017-Apr-30 06:11 242 32.8
2017-Apr-30 06:06 238 32.8
2017-Apr-30 06:01 203 32.8
2017-Apr-30 05:56 221 32.8
2017-Apr-30 05:51 198 32.8
2017-Apr-30 05:46 202 32.8
2017-Apr-30 05:41 211 32.8
2017-Apr-30 05:36 250 32.8
2017-Apr-30 05:31 202 32.8
2017-Apr-30 05:26 247 32.8
2017-Apr-30 05:21 221 32.8
2017-Apr-30 05:16 237 32.8
2017-Apr-30 05:11 240 32.8
2017-Apr-30 05:06 236 32.8
2017-Apr-30 05:01 242 32.8
2017-Apr-30 04:56 216 32.8
2017-Apr-30 04:51 246 32.8
2017-Apr-30 04:46 269 32.8
2017-Apr-30 04:41 221 32.8
2017-Apr-30 04:36 221 32.8
2017-Apr-30 04:31 237 32.8
2017-Apr-30 04:26 221 32.8
2017-Apr-30 04:21 173 32.8
2017-Apr-30 04:16 211 32.8
2017-Apr-30 04:11 234 32.8
2017-Apr-30 04:06 252 32.8
2017-Apr-30 04:01 244 32.8
2017-Apr-30 03:56 175 32.8
2017-Apr-30 03:51 203 32.8
2017-Apr-30 03:46 174 32.8
2017-Apr-30 03:41 232 32.2
2017-Apr-30 03:36 225 32.2
2017-Apr-30 03:31 240 32.2
2017-Apr-30 03:26 235 32.2
2017-Apr-30 03:21 216 32.2
2017-Apr-30 03:16 187 32.2
2017-Apr-30 03:11 196 32.2
2017-Apr-30 03:06 227 31.7
2017-Apr-30 03:01 227 31.7
2017-Apr-30 02:56 216 31.1
2017-Apr-30 02:51 211 31.1
2017-Apr-30 02:46 216 31.1
2017-Apr-30 02:41 211 31.1
2017-Apr-30 02:36 211 31.1
2017-Apr-30 02:31 199 31.1
2017-Apr-30 02:26 228 31.1
2017-Apr-30 02:21 172 31.1
2017-Apr-30 02:16 162 30.6
2017-Apr-30 02:11 164 30.6
2017-Apr-30 02:06 162 30.6
2017-Apr-30 02:01 163 30.6
2017-Apr-30 01:56 165 30.6
2017-Apr-30 01:51 240 30.6
2017-Apr-30 01:46 239 30.6
2017-Apr-30 01:41 239 31.1
2017-Apr-30 01:36 238 31.1
2017-Apr-30 01:31 239 31.1
2017-Apr-30 01:26 239 31.1
2017-Apr-30 01:21 239 31.1
2017-Apr-30 01:16 239 31.1
2017-Apr-30 01:11 238 31.1
2017-Apr-30 01:06 239 31.7
2017-Apr-30 01:01 238 31.7
2017-Apr-30 00:56 207 31.7
2017-Apr-30 00:51 206 31.7
2017-Apr-30 00:46 211 31.7
2017-Apr-30 00:41 196 31.7
2017-Apr-30 00:36 196 32.2
2017-Apr-30 00:31 200 32.2
2017-Apr-30 00:26 196 32.2
2017-Apr-30 00:21 181 32.2
2017-Apr-30 00:16 178 32.8
2017-Apr-30 00:11 173 32.8
2017-Apr-30 00:06 178 32.8
2017-Apr-30 00:01 192 32.8
2017-Apr-29 23:56 187 32.8
2017-Apr-29 23:51 211 32.8
2017-Apr-29 23:46 184 32.8
2017-Apr-29 23:41 183 32.8
2017-Apr-29 23:36 182 32.8
2017-Apr-29 23:31 179 32.8
2017-Apr-29 23:26 187 32.8
2017-Apr-29 23:21 191 32.8
2017-Apr-29 23:16 194 32.8
2017-Apr-29 23:11 181 32.8
2017-Apr-29 23:06 177 32.8
2017-Apr-29 23:01 178 32.8
2017-Apr-29 22:56 177 32.8
2017-Apr-29 22:51 181 32.8
2017-Apr-29 22:46 191 32.2
2017-Apr-29 22:41 230 32.2
2017-Apr-29 22:36 230 32.2
2017-Apr-29 22:31 189 32.2
2017-Apr-29 22:26 182 32.2
2017-Apr-29 22:21 182 32.2
2017-Apr-29 22:16 182 32.2
2017-Apr-29 22:11 184 32.2
2017-Apr-29 22:06 183 32.2
2017-Apr-29 22:01 183 32.2
2017-Apr-29 21:56 182 32.2
2017-Apr-29 21:51 183 32.2
2017-Apr-29 21:46 191 32.2
2017-Apr-29 21:41 181 32.8
2017-Apr-29 21:36 183 32.8
2017-Apr-29 21:31 185 32.8
2017-Apr-29 21:26 189 32.8
2017-Apr-29 21:21 189 32.8
2017-Apr-29 21:16 189 32.8
2017-Apr-29 21:11 188 32.8
2017-Apr-29 21:06 186 32.8
2017-Apr-29 21:01 196 32.8
2017-Apr-29 20:56 187 32.8
2017-Apr-29 20:51 183 32.8
2017-Apr-29 20:46 185 32.8
2017-Apr-29 20:41 170 32.8
2017-Apr-29 20:36 177 32.8
2017-Apr-29 20:31 173 32.8
2017-Apr-29 20:26 173 32.8
2017-Apr-29 20:21 172 32.8
2017-Apr-29 20:16 171 32.8
2017-Apr-29 20:11 171 32.8
2017-Apr-29 20:06 185 32.8
2017-Apr-29 20:01 185 32.8
2017-Apr-29 19:56 185 32.8
2017-Apr-29 19:51 185 32.8
2017-Apr-29 19:46 185 32.8
2017-Apr-29 19:41 185 32.8
2017-Apr-29 19:36 185 32.8
2017-Apr-29 19:31 185 32.8
2017-Apr-29 19:26 185 32.8
2017-Apr-29 19:21 185 33.3
2017-Apr-29 19:16 185 33.3
2017-Apr-29 19:11 185 33.3
2017-Apr-29 19:06 185 33.3
2017-Apr-29 19:01 185 33.3
2017-Apr-29 18:56 186 33.3
2017-Apr-29 18:51 181 33.3
2017-Apr-29 18:46 189 33.3
2017-Apr-29 18:41 188 33.3
2017-Apr-29 18:36 178 33.3
2017-Apr-29 18:31 177 33.3
2017-Apr-29 18:26 178 33.3
2017-Apr-29 18:21 178 33.3
2017-Apr-29 18:16 180 33.3
2017-Apr-29 18:11 177 33.3
2017-Apr-29 18:06 178 33.3
2017-Apr-29 18:01 221 33.3
2017-Apr-29 17:56 165 33.3
2017-Apr-29 17:51 196 33.3
2017-Apr-29 17:46 194 33.9
2017-Apr-29 17:41 185 33.9
2017-Apr-29 17:36 171 33.9
2017-Apr-29 17:31 229 33.9
2017-Apr-29 17:26 248 33.9
2017-Apr-29 17:21 225 33.9
2017-Apr-29 17:16 211 33.9
2017-Apr-29 17:11 259 34.4
2017-Apr-29 17:06 227 34.4
2017-Apr-29 17:01 189 35.0
2017-Apr-29 16:56 227 35.0
2017-Apr-29 16:51 192 35.0
2017-Apr-29 16:46 226 35.0
2017-Apr-29 16:41 251 35.0
2017-Apr-29 16:36 234 35.0
2017-Apr-29 16:31 247 35.0
2017-Apr-29 16:26 216 35.0
2017-Apr-29 16:21 197 35.0
2017-Apr-29 16:16 240 35.0
2017-Apr-29 16:11 198 35.0
2017-Apr-29 16:06 236 35.0
2017-Apr-29 16:01 187 35.0
2017-Apr-29 15:56 232 34.4
2017-Apr-29 15:51 239 34.4
2017-Apr-29 15:46 221 34.4
2017-Apr-29 15:41 216 34.4
2017-Apr-29 15:36 230 34.4
2017-Apr-29 15:31 196 34.4
2017-Apr-29 15:26 211 34.4
2017-Apr-29 15:21 225 33.9
2017-Apr-29 15:16 199 33.9
2017-Apr-29 15:11 243 33.9
2017-Apr-29 15:06 233 33.9
2017-Apr-29 15:01 244 33.3
2017-Apr-29 14:56 244 33.3
2017-Apr-29 14:51 211 33.3
2017-Apr-29 14:46 206 33.3
2017-Apr-29 14:41 238 33.3
2017-Apr-29 14:36 238 33.3
2017-Apr-29 14:31 240 32.8
2017-Apr-29 14:26 226 32.8
2017-Apr-29 14:21 221 32.2
2017-Apr-29 14:16 216 32.2
2017-Apr-29 14:11 227 32.2
2017-Apr-29 14:06 200 32.2
2017-Apr-29 14:01 185 32.2
2017-Apr-29 13:56 181 32.2
2017-Apr-29 13:51 182 32.2
2017-Apr-29 13:46 187 31.7
2017-Apr-29 13:41 188 31.7
2017-Apr-29 13:36 193 31.7
2017-Apr-29 13:31 198 31.7
2017-Apr-29 13:26 221 31.7
2017-Apr-29 13:21 229 31.7
2017-Apr-29 13:16 221 31.7
2017-Apr-29 13:11 225 31.7
2017-Apr-29 13:06 226 31.7
2017-Apr-29 13:01 233 31.7
2017-Apr-29 12:56 233 31.7
2017-Apr-29 12:51 233 31.7
2017-Apr-29 12:46 236 31.7
2017-Apr-29 12:41 236 31.7
2017-Apr-29 12:36 235 31.1
2017-Apr-29 12:31 237 31.1
2017-Apr-29 12:26 236 31.1
2017-Apr-29 12:21 239 31.1
2017-Apr-29 12:16 238 31.1
2017-Apr-29 12:11 239 31.1
2017-Apr-29 12:06 237 31.1
2017-Apr-29 12:01 235 31.1
2017-Apr-29 11:56 237 31.1
2017-Apr-29 11:51 237 31.1
2017-Apr-29 11:46 237 31.1
2017-Apr-29 11:41 238 31.1
2017-Apr-29 11:36 240 31.1
2017-Apr-29 11:31 247 31.1
2017-Apr-29 11:26 247 31.1
2017-Apr-29 11:21 248 31.1
2017-Apr-29 11:16 246 31.1
2017-Apr-29 11:11 244 31.1
2017-Apr-29 11:06 242 31.1
2017-Apr-29 11:01 235 31.1
2017-Apr-29 10:56 234 31.1
2017-Apr-29 10:51 233 31.1
2017-Apr-29 10:46 225 31.1
2017-Apr-29 10:41 221 31.1
2017-Apr-29 10:36 221 31.1
2017-Apr-29 10:31 221 31.1
2017-Apr-29 10:26 221 31.1
2017-Apr-29 10:21 221 31.1
2017-Apr-29 10:16 225 30.6
2017-Apr-29 10:11 221 30.6
2017-Apr-29 10:06 228 30.6
2017-Apr-29 10:01 221 30.6
2017-Apr-29 09:56 221 30.6
2017-Apr-29 09:51 205 30.6
2017-Apr-29 09:46 181 30.6
2017-Apr-29 09:41 182 30.6
2017-Apr-29 09:36 077 30.6
2017-Apr-29 09:31 075 30.6
2017-Apr-29 09:26 077 30.6
2017-Apr-29 09:21 077 30.6
2017-Apr-29 09:16 076 30.6
2017-Apr-29 09:11 077 30.0
2017-Apr-29 09:06 076 30.0
2017-Apr-29 09:01 077 30.0
2017-Apr-29 08:56 075 30.0
2017-Apr-29 08:51 076 30.0
2017-Apr-29 08:46 077 30.0
2017-Apr-29 08:41 076 30.0
2017-Apr-29 08:36 077 30.0
2017-Apr-29 08:31 077 29.4
2017-Apr-29 08:26 076 29.4
2017-Apr-29 08:21 077 29.4
2017-Apr-29 08:16 076 30.0
2017-Apr-29 08:11 077 29.4
2017-Apr-29 08:06 077 29.4
2017-Apr-29 08:01 076 29.4
2017-Apr-29 07:56 077 29.4
2017-Apr-29 07:51 077 29.4
2017-Apr-29 07:46 074 28.9
2017-Apr-29 07:41 077 28.9
2017-Apr-29 07:36 077 28.9
2017-Apr-29 07:31 077 28.9
2017-Apr-29 07:26 077 28.3
2017-Apr-29 07:21 075 28.3
2017-Apr-29 07:16 077 28.3
2017-Apr-29 07:11 076 28.3
2017-Apr-29 07:06 077 28.3
2017-Apr-29 07:01 076 28.3
2017-Apr-29 06:56 077 28.3
2017-Apr-29 06:51 076 28.3
2017-Apr-29 06:46 076 28.3
2017-Apr-29 06:41 076 28.3
2017-Apr-29 06:36 077 27.8
2017-Apr-29 06:31 076 27.8
2017-Apr-29 06:26 077 27.8
2017-Apr-29 06:21 077 27.8
2017-Apr-29 06:16 077 27.8
2017-Apr-29 06:11 077 27.8
2017-Apr-29 06:06 076 27.2
2017-Apr-29 06:01 076 27.2
2017-Apr-29 05:56 077 27.2
2017-Apr-29 05:51 077 27.2
2017-Apr-29 05:46 077 27.2
2017-Apr-29 05:41 077 27.2
2017-Apr-29 05:36 077 27.2
2017-Apr-29 05:31 077 27.8
2017-Apr-29 05:26 076 27.8
2017-Apr-29 05:21 075 27.8
2017-Apr-29 05:16 077 27.8
2017-Apr-29 05:11 077 28.3
2017-Apr-29 05:06 076 27.8
2017-Apr-29 05:01 077 27.8
2017-Apr-29 04:56 077 27.8
2017-Apr-29 04:51 076 27.8
2017-Apr-29 04:46 077 27.8
2017-Apr-29 04:41 077 27.8
2017-Apr-29 04:36 076 27.2
2017-Apr-29 04:31 076 27.2
2017-Apr-29 04:26 077 27.2
2017-Apr-29 04:21 075 27.2
2017-Apr-29 04:16 076 27.2
2017-Apr-29 04:11 077 26.7
2017-Apr-29 04:06 076 26.7
2017-Apr-29 04:01 077 26.1
2017-Apr-29 03:56 077 26.1
2017-Apr-29 03:51 077 26.1
2017-Apr-29 03:46 077 26.1
2017-Apr-29 03:41 076 25.6
2017-Apr-29 03:36 076 25.6
2017-Apr-29 03:31 077 25.6
2017-Apr-29 03:26 076 25.6
2017-Apr-29 03:21 076 25.0
2017-Apr-29 03:16 076 25.0
2017-Apr-29 03:11 077 25.0
2017-Apr-29 03:06 076 25.0
2017-Apr-29 03:01 077 24.4
2017-Apr-29 02:56 076 24.4
2017-Apr-29 02:51 076 24.4
2017-Apr-29 02:46 076 24.4
2017-Apr-29 02:41 076 23.9
2017-Apr-29 02:36 075 23.9
2017-Apr-29 02:31 076 23.9
2017-Apr-29 02:26 077 23.3
2017-Apr-29 02:21 077 23.3
2017-Apr-29 02:16 076 22.8
2017-Apr-29 02:11 075 22.8
2017-Apr-29 02:06 077 22.2
2017-Apr-29 02:01 077 22.2
2017-Apr-29 01:56 076 21.7
2017-Apr-29 01:51 076 21.1
2017-Apr-29 01:46 077 21.1
2017-Apr-29 01:41 077 21.1
2017-Apr-29 01:36 077 20.6
2017-Apr-29 01:31 077 20.6
2017-Apr-29 01:26 076 20.6
2017-Apr-29 01:21 077 20.0
2017-Apr-29 01:16 076 20.0
2017-Apr-29 01:11 077 20.0
2017-Apr-29 01:06 076 20.0
2017-Apr-29 01:01 077 19.4
2017-Apr-29 00:56 077 19.4
2017-Apr-29 00:51 077 20.0
2017-Apr-29 00:46 077 20.0
2017-Apr-29 00:41 077 20.0
2017-Apr-29 00:36 076 20.0
2017-Apr-29 00:31 077 20.0
2017-Apr-29 00:26 077 20.0
2017-Apr-29 00:21 076 20.0
2017-Apr-29 00:16 077 20.0
2017-Apr-29 00:11 077 20.0
2017-Apr-29 00:06 076 20.0
2017-Apr-29 00:01 077 20.0
2017-Apr-28 23:56 076 20.6
2017-Apr-28 23:51 077 20.6
2017-Apr-28 23:46 077 20.6
2017-Apr-28 23:41 077 20.6
2017-Apr-28 23:36 077 21.1
2017-Apr-28 23:31 077 21.1
2017-Apr-28 23:26 076 21.7
2017-Apr-28 23:21 076 21.7
2017-Apr-28 23:16 076 21.7
2017-Apr-28 23:11 077 21.7
2017-Apr-28 23:06 076 21.7
2017-Apr-28 23:01 076 21.7
2017-Apr-28 22:56 077 21.7
2017-Apr-28 22:51 076 21.7
2017-Apr-28 22:46 077 22.2
2017-Apr-28 22:41 077 22.2
2017-Apr-28 22:36 077 22.2
2017-Apr-28 22:31 076 22.2
2017-Apr-28 22:26 076 22.8
2017-Apr-28 22:21 077 22.8
2017-Apr-28 22:16 077 23.3
2017-Apr-28 22:11 076 23.9
2017-Apr-28 22:06 076 23.9
2017-Apr-28 22:01 077 24.4
2017-Apr-28 21:56 076 25.0
2017-Apr-28 21:51 076 25.0
2017-Apr-28 21:46 076 25.6
2017-Apr-28 21:41 077 25.6
2017-Apr-28 21:36 077 26.1
2017-Apr-28 21:31 077 26.7
2017-Apr-28 21:26 076 27.2
2017-Apr-28 21:21 077 27.8
2017-Apr-28 21:16 077 28.3
2017-Apr-28 21:11 077 29.4
2017-Apr-28 21:06 076 30.0
2017-Apr-28 21:01 075 30.0
2017-Apr-28 20:56 077 30.6
2017-Apr-28 20:51 077 30.6
2017-Apr-28 20:46 076 30.6
2017-Apr-28 20:41 076 30.6
2017-Apr-28 20:36 075 30.6
2017-Apr-28 20:26 077 31.1
2017-Apr-28 20:21 076 31.1
2017-Apr-28 20:16 077 31.7
2017-Apr-28 20:11 077 31.7
2017-Apr-28 20:06 077 31.7
2017-Apr-28 20:01 077 31.7